Wind_Speed
25 27 28 31 33 35 38 42 46 50 56 61 66 71 74 75 75 76 75 74 72 68 63 62 63 65 65 64 61 59 58 59 61 62 62 62 62 63 62 60 56 50 42 35
24 25 27 30 33 36 39 43 47 52 57 62 67 71 74 75 75 75 74 73 70 65 61 61 63 64 64 63 60 58 58 60 62 63 63 64 64 66 66 61 53 43 33 25
30 30 31 33 37 40 41 44 49 54 58 63 68 72 74 74 74 74 73 71 68 63 60 60 63 64 64 62 60 58 59 61 63 64 65 66 68 70 68 59 46 33 22 14
36 36 35 38 39 42 44 45 50 55 59 64 69 72 73 73 73 73 71 70 66 61 58 60 62 64 63 61 59 58 59 62 64 65 66 67 70 72 68 56 41 28 16 8
42 43 41 40 42 45 47 47 51 56 60 65 69 73 73 72 72 71 70 68 64 59 57 59 62 63 62 60 58 57 59 62 64 66 67 68 71 73 68 55 40 27 16 7
45 46 46 45 46 46 48 50 54 57 61 65 69 71 72 71 70 70 69 67 62 58 57 59 61 61 61 59 58 58 60 63 65 67 68 69 72 74 69 57 42 29 19 10
48 48 46 49 48 48 48 51 54 57 61 64 68 71 71 70 69 68 67 65 61 57 56 58 59 60 60 59 58 58 60 63 65 67 68 69 71 74 71 61 46 32 22 13
53 55 53 53 51 49 49 50 53 57 60 64 68 70 70 68 68 67 66 64 60 56 55 57 58 59 59 58 58 58 60 62 64 66 68 68 69 71 71 66 52 37 26 17
52 54 55 55 52 50 49 50 53 57 60 63 67 69 68 67 67 66 65 63 59 55 54 56 57 57 57 57 57 58 59 60 62 65 67 68 68 69 70 69 61 47 34 23
52 55 56 55 53 50 49 50 53 56 59 63 67 68 67 66 66 65 64 62 58 54 53 54 56 56 56 56 57 57 57 58 60 63 66 68 68 68 69 69 67 59 45 33
52 55 57 56 54 51 50 50 53 56 59 62 66 67 66 65 64 64 63 61 57 53 52 53 54 54 54 55 55 55 56 57 59 61 64 67 68 68 68 69 68 66 59 47
52 56 59 58 56 53 50 51 53 56 58 61 64 66 65 64 63 62 61 60 56 52 50 51 52 53 53 53 54 54 54 56 57 59 61 64 66 68 68 67 66 65 63 59
52 56 59 59 57 53 51 51 53 55 58 61 63 64 64 63 62 61 60 58 55 52 49 49 50 51 51 51 52 52 53 54 56 57 59 61 63 65 66 66 66 64 63 62
52 56 59 60 58 54 51 51 52 55 57 60 62 63 63 62 61 60 59 57 54 51 48 47 48 49 49 49 50 50 51 53 54 55 57 58 60 62 64 65 65 65 63 62
52 56 59 61 59 55 52 51 52 54 56 59 61 62 62 61 60 59 58 56 54 50 47 46 46 47 48 48 48 48 49 50 52 53 54 56 57 59 61 63 64 65 64 63
53 56 60 61 60 56 52 51 51 53 55 58 60 61 61 59 58 57 56 55 53 50 46 44 44 45 46 46 47 47 47 48 49 51 52 53 54 56 58 59 61 63 64 64
53 57 61 61 59 56 53 50 51 52 54 57 59 60 60 58 56 55 54 53 52 49 45 43 42 43 44 45 45 45 45 45 46 48 49 51 52 54 55 57 58 60 61 63
53 57 61 61 58 56 53 51 50 52 54 56 58 59 59 57 55 54 53 52 50 48 45 41 40 40 42 43 44 44 44 43 44 45 46 48 49 51 53 54 56 57 58 60
54 58 61 61 58 55 52 50 50 51 53 55 58 59 58 56 53 52 51 50 49 47 45 41 39 38 39 41 42 42 42 42 42 43 44 45 47 48 50 52 54 55 56 56
55 58 61 60 57 54 52 49 49 50 52 55 57 58 57 55 52 51 50 49 48 47 45 41 38 37 37 38 40 41 41 41 41 41 42 43 44 46 47 49 51 53 54 54
56 59 61 60 56 53 51 49 48 49 51 54 57 57 56 54 51 49 49 48 47 46 43 41 38 36 35 36 37 39 40 40 40 40 41 42 42 44 45 47 49 50 52 52
57 60 61 59 55 52 50 48 47 48 51 54 56 57 55 52 50 48 47 46 45 44 42 40 38 36 34 34 35 36 38 39 40 40 40 41 41 42 43 45 46 48 49 50
58 60 61 58 54 51 49 47 47 48 50 54 56 56 54 52 49 47 45 45 44 43 41 40 38 36 34 33 33 34 35 37 38 39 40 40 41 42 42 43 44 46 47 48
59 61 60 56 52 50 48 46 46 47 50 54 55 55 54 51 48 45 44 43 43 42 41 39 38 36 35 33 32 32 33 35 36 37 38 39 40 41 42 42 43 43 44 46
60 60 58 54 50 48 46 46 46 47 50 53 54 55 53 51 47 45 43 42 41 40 40 39 37 36 35 34 33 32 32 33 34 35 36 37 39 40 40 41 42 42 43 44
60 59 55 52 49 47 46 45 46 48 50 53 54 54 52 50 47 44 42 41 40 39 39 38 36 36 35 34 33 33 32 32 33 34 34 36 37 38 39 40 40 40 41 42
60 56 53 49 47 46 45 45 46 48 50 52 53 52 51 50 47 44 41 40 39 38 38 37 36 35 35 34 34 33 33 33 33 33 34 34 35 36 37 38 39 39 39 40
Wind_Direction
344 342 339 335 334 335 335 336 338 340 342 343 343 344 344 344 343 343 342 342 342 342 343 344 345 345 346 347 347 348 349 348 347 345 343 340 337 334 330 325 319 312 303 292
345 340 337 333 333 335 337 337 339 341 343 343 343 345 345 345 344 344 343 343 344 344 344 345 346 347 348 349 350 351 351 350 350 348 346 344 341 339 336 332 326 319 307 290
347 342 340 336 337 337 338 339 340 342 343 343 344 346 346 345 345 344 345 345 345 345 345 347 348 349 351 352 353 353 353 353 353 352 350 348 347 346 344 341 337 332 320 294
350 345 344 338 336 336 338 340 340 342 343 343 344 345 346 346 345 346 346 346 346 347 347 348 350 352 353 354 354 355 356 356 356 355 355 354 353 352 352 351 350 349 342 316
352 347 344 339 338 337 337 340 340 341 342 343 344 345 347 347 346 346 347 347 348 348 349 350 352 354 355 356 357 357 358 359 359 360 359 359 359 359 360 0 1 3 3 1
353 347 344 342 339 337 337 339 340 341 342 343 344 345 347 347 347 347 348 349 349 350 351 352 354 356 357 358 359 360 1 2 3 3 4 4 4 6 6 7 9 11 15 21
353 350 346 344 341 339 337 338 339 340 341 342 344 346 347 347 348 348 349 350 350 351 353 354 356 357 359 0 1 3 4 5 6 7 7 8 9 11 12 13 13 15 20 26
352 351 348 345 342 339 337 336 337 339 341 342 344 346 348 348 348 349 350 351 352 353 354 356 358 359 1 2 4 5 6 6 8 10 11 12 13 15 17 18 19 20 23 26
350 349 348 345 341 338 336 335 337 338 340 342 344 346 348 348 349 350 351 352 353 354 355 357 359 1 2 4 5 7 8 8 10 12 13 15 17 18 20 22 23 24 25 26
348 348 347 344 342 338 336 336 337 338 340 342 344 346 348 349 350 351 352 353 354 355 357 359 0 2 3 5 7 9 9 10 12 14 15 17 19 21 22 24 26 27 27 26
345 345 345 344 342 339 337 337 337 338 340 342 344 346 348 349 350 351 353 354 355 356 358 360 2 3 4 6 8 10 10 11 13 16 17 18 20 22 24 25 27 29 29 29
342 343 344 343 342 340 338 337 338 338 340 342 344 346 348 349 350 352 353 355 355 357 358 1 3 4 5 7 9 11 11 12 15 17 18 20 22 23 25 26 28 29 30 31
339 340 342 342 341 340 339 338 338 339 340 341 344 346 348 349 350 352 354 355 356 357 358 1 3 5 6 8 10 12 12 13 15 17 19 21 23 25 26 27 28 29 30 31
336 338 340 341 340 340 339 338 338 339 340 342 344 346 348 348 350 352 354 355 356 357 358 1 3 5 7 9 10 12 13 14 16 18 19 21 23 25 26 28 29 30 30 31
333 335 337 339 339 339 338 338 338 339 340 341 344 346 347 348 350 352 354 355 356 357 358 0 3 5 8 9 10 12 13 14 16 18 20 21 23 25 26 27 29 30 30 31
329 333 335 337 337 338 338 337 338 338 339 341 343 345 347 348 349 351 354 355 356 357 358 360 2 5 8 9 11 11 12 14 16 18 19 21 23 24 26 27 28 29 30 30
326 330 333 335 335 336 337 336 336 337 338 340 343 345 346 347 349 351 353 355 356 356 357 358 1 4 8 9 11 12 12 14 15 17 18 20 22 24 25 26 27 27 28 29
324 327 331 333 333 334 335 335 335 336 338 339 342 344 345 346 348 350 352 354 355 356 357 357 359 3 7 9 11 12 12 13 15 16 17 19 20 22 24 25 26 26 27 27
321 325 329 332 331 332 333 333 333 335 336 338 341 342 344 345 347 349 351 352 354 355 356 356 357 1 5 8 10 11 12 13 14 15 16 17 18 20 21 23 23 24 25 25
319 323 327 330 329 331 331 331 331 333 335 337 339 341 342 344 345 347 349 351 353 354 355 355 356 359 2 6 8 10 11 12 13 14 15 15 16 17 19 20 21 22 23 23
317 321 325 327 327 328 329 329 330 331 334 335 338 339 341 342 344 345 348 349 351 352 354 354 354 355 358 1 5 8 9 11 12 13 13 13 13 14 16 18 19 20 20 21
314 319 322 324 324 325 327 327 328 330 332 334 336 338 339 341 342 344 346 348 349 351 352 353 353 353 354 357 360 3 6 8 10 12 12 12 11 12 13 15 16 17 18 18
312 316 319 321 321 323 324 325 326 328 330 333 335 336 338 339 340 342 344 346 348 349 350 351 352 351 351 352 354 358 1 4 7 8 9 10 10 10 11 12 13 14 15 16
309 313 316 318 319 320 321 322 323 326 329 331 333 334 336 337 338 339 341 344 346 347 347 348 350 350 349 348 349 351 354 358 1 2 4 6 7 8 9 11 12 12 12 13
307 310 313 315 316 318 319 319 321 324 327 329 331 332 334 336 336 337 339 342 344 345 345 345 347 348 348 347 346 346 347 350 353 356 358 0 2 3 5 7 8 10 10 11
304 307 309 311 313 315 316 317 319 322 325 327 329 331 332 334 335 335 336 338 341 342 342 342 344 345 346 346 344 343 342 343 345 348 351 353 356 358 360 1 3 4 6 8
301 304 305 307 310 312 313 314 316 320 323 325 327 329 330 332 332 333 333 335 338 340 340 340 340 342 344 344 344 342 340 339 340 341 343 345 348 351 353 356 358 360 1 3
Height
5848 5843 5837 5831 5826 5820 5813 5804 5796 5787 5776 5763 5750 5737 5722 5707 5692 5676 5659 5643 5627 5612 5598 5584 5571 5556 5540 5525 5511 5497 5483 5470 5455 5440 5425 5409 5393 5377 5361 5345 5331 5321 5315 5314
5848 5842 5836 5830 5823 5816 5809 5800 5790 5781 5770 5758 5745 5732 5717 5702 5687 5671 5654 5638 5622 5607 5594 5580 5567 5552 5537 5522 5507 5493 5480 5466 5450 5435 5418 5401 5384 5365 5346 5327 5311 5300 5295 5296
5844 5838 5833 5826 5818 5811 5804 5795 5785 5775 5765 5752 5739 5727 5712 5697 5682 5666 5650 5634 5618 5604 5590 5577 5563 5548 5533 5518 5504 5490 5477 5462 5446 5430 5413 5394 5375 5354 5332 5312 5297 5287 5283 5283
5839 5834 5827 5823 5813 5805 5798 5790 5780 5770 5759 5748 5735 5722 5708 5693 5678 5662 5646 5630 5615 5601 5587 5574 5560 5545 5530 5516 5502 5489 5475 5460 5444 5427 5409 5390 5370 5348 5325 5304 5290 5281 5278 5278
5834 5827 5822 5817 5808 5799 5791 5785 5775 5765 5754 5743 5730 5717 5704 5689 5674 5658 5643 5627 5612 5598 5585 5572 5558 5543 5529 5515 5501 5487 5473 5458 5442 5425 5407 5388 5368 5345 5322 5303 5290 5282 5278 5278
5832 5823 5816 5812 5803 5794 5787 5779 5770 5760 5749 5738 5726 5714 5700 5684 5669 5654 5639 5624 5609 5596 5583 5570 5556 5542 5528 5514 5501 5487 5472 5457 5441 5424 5406 5387 5368 5346 5324 5306 5293 5286 5282 5281
5829 5821 5814 5807 5797 5789 5782 5774 5764 5755 5745 5734 5722 5710 5696 5680 5666 5651 5636 5621 5606 5593 5581 5569 5555 5541 5527 5514 5500 5486 5472 5457 5442 5425 5408 5390 5371 5350 5330 5312 5299 5291 5287 5285
5823 5815 5810 5800 5791 5784 5778 5768 5760 5750 5740 5730 5718 5704 5691 5677 5662 5647 5633 5618 5604 5591 5580 5568 5554 5541 5528 5514 5501 5487 5473 5460 5445 5429 5413 5395 5377 5359 5340 5323 5308 5299 5293 5290
5822 5816 5806 5796 5788 5780 5772 5764 5755 5746 5736 5725 5714 5701 5687 5674 5660 5645 5630 5616 5602 5590 5579 5567 5554 5541 5529 5516 5503 5489 5477 5463 5449 5434 5418 5401 5385 5368 5351 5334 5319 5307 5300 5295
5818 5810 5802 5793 5784 5776 5768 5759 5751 5742 5732 5721 5710 5697 5684 5671 5657 5643 5628 5614 5601 5589 5578 5566 5554 5542 5530 5517 5504 5492 5480 5467 5454 5439 5424 5408 5393 5377 5361 5346 5331 5317 5308 5302
5815 5807 5799 5790 5780 5771 5763 5754 5746 5737 5727 5717 5705 5693 5681 5667 5654 5640 5627 5613 5600 5589 5578 5566 5555 5543 5531 5519 5507 5496 5484 5472 5458 5444 5430 5415 5400 5385 5369 5355 5341 5329 5319 5310
5811 5803 5794 5785 5776 5767 5758 5750 5742 5733 5723 5713 5702 5690 5677 5665 5652 5638 5625 5612 5599 5588 5577 5567 5556 5545 5533 5522 5510 5499 5488 5476 5464 5450 5437 5423 5408 5394 5380 5366 5354 5342 5331 5321
5805 5797 5789 5780 5771 5762 5754 5746 5737 5728 5719 5709 5698 5686 5674 5662 5649 5636 5623 5611 5599 5588 5577 5567 5557 5546 5535 5524 5513 5502 5492 5481 5469 5456 5444 5432 5419 5406 5392 5379 5366 5354 5343 5333
5800 5792 5784 5775 5767 5758 5749 5741 5733 5724 5715 5705 5694 5683 5671 5659 5647 5635 5622 5610 5598 5588 5577 5568 5558 5548 5537 5527 5516 5506 5496 5485 5474 5462 5451 5439 5427 5415 5403 5391 5379 5367 5355 5345
5795 5788 5780 5771 5762 5753 5745 5736 5728 5720 5711 5701 5691 5680 5668 5656 5645 5633 5621 5609 5598 5588 5578 5568 5559 5549 5539 5529 5520 5510 5500 5490 5479 5468 5457 5446 5435 5424 5413 5401 5390 5378 5367 5356
5790 5782 5774 5766 5757 5748 5740 5732 5724 5716 5707 5697 5687 5676 5665 5654 5643 5631 5620 5609 5598 5588 5578 5569 5560 5552 5542 5532 5522 5513 5503 5494 5484 5474 5464 5454 5443 5433 5422 5411 5400 5389 5378 5368
5784 5776 5769 5761 5752 5743 5735 5727 5720 5711 5702 5693 5683 5673 5662 5651 5640 5629 5619 5608 5598 5588 5578 5569 5561 5553 5544 5535 5525 5516 5507 5498 5489 5480 5470 5461 5451 5440 5430 5419 5409 5398 5388 5378
5778 5771 5763 5755 5746 5738 5730 5722 5715 5707 5698 5689 5679 5669 5659 5649 5638 5628 5617 5607 5597 5588 5578 5570 5562 5554 5545 5536 5528 5519 5511 5502 5493 5485 5476 5466 5457 5447 5437 5427 5417 5407 5397 5387
5770 5763 5756 5748 5740 5732 5724 5717 5709 5702 5693 5685 5676 5666 5656 5646 5636 5626 5616 5607 5597 5588 5579 5570 5562 5554 5546 5538 5530 5522 5514 5505 5497 5488 5480 5471 5462 5453 5444 5434 5424 5415 5405 5396
5762 5756 5749 5741 5733 5726 5719 5711 5704 5697 5689 5680 5671 5662 5652 5643 5633 5624 5615 5605 5596 5587 5578 5569 5562 5554 5547 5539 5532 5525 5517 5509 5500 5492 5484 5476 5468 5459 5450 5440 5431 5422 5413 5403
5754 5748 5742 5734 5727 5720 5713 5706 5699 5691 5684 5675 5667 5658 5648 5639 5630 5621 5612 5603 5594 5585 5577 5569 5561 5554 5547 5541 5534 5527 5519 5512 5504 5495 5487 5480 5472 5463 5454 5445 5437 5428 5419 5410
5746 5740 5734 5727 5720 5713 5706 5700 5693 5686 5678 5670 5662 5653 5644 5635 5626 5618 5610 5601 5592 5584 5576 5568 5561 5554 5547 5541 5535 5528 5521 5514 5506 5498 5491 5483 5475 5467 5459 5450 5441 5433 5425 5416
5737 5732 5726 5720 5713 5706 5700 5693 5687 5680 5673 5665 5657 5648 5640 5631 5622 5615 5607 5599 5590 5583 5575 5568 5560 5553 5547 5540 5535 5529 5522 5515 5508 5501 5493 5486 5478 5470 5462 5454 5446 5438 5430 5421
5728 5723 5717 5711 5705 5699 5693 5686 5680 5674 5667 5659 5651 5643 5635 5627 5619 5611 5603 5596 5588 5581 5573 5566 5559 5552 5546 5540 5534 5528 5522 5516 5509 5503 5495 5488 5481 5473 5465 5458 5450 5442 5434 5426
5718 5713 5708 5702 5697 5691 5685 5679 5673 5667 5660 5653 5646 5638 5630 5622 5614 5607 5599 5592 5585 5578 5571 5564 5557 5551 5544 5538 5533 5527 5521 5516 5510 5503 5497 5490 5482 5475 5468 5461 5453 5445 5438 5430
5708 5704 5699 5694 5689 5683 5677 5672 5666 5660 5654 5647 5639 5632 5624 5616 5609 5602 5595 5588 5582 5575 5568 5562 5555 5549 5543 5537 5531 5525 5520 5514 5508 5502 5496 5490 5483 5476 5470 5462 5455 5448 5440 5433
5698 5693 5689 5684 5679 5674 5669 5664 5658 5653 5647 5640 5633 5625 5618 5611 5604 5597 5591 5585 5578 5571 5565 5559 5553 5547 5541 5535 5529 5523 5517 5512 5506 5500 5495 5489 5483 5477 5470 5463 5456 5449 5442 5435